Location: Miles
(41.4492°N, 81.6087°W)
Time: 15:41:35
(UTC+00:00)

Vanguard 1 Rocket - Pass Details

Date: 17 September 2024
Orbit: 650 x 4218 km, 34.3° (Epoch: 07 October)

Event Time Altitude Azimuth Distance (km) Brightness Sun altitude
Rises 05:27:26 0° 175° (S) 4,455 - -46.5°
Reaches altitude 10° 05:32:04 10° 152° (SSE) 4,083 - -46.4°
Maximum altitude 05:37:26 14° 123° (ESE) 4,392 - -46.3°
Exits shadow 05:40:25 13° 109° (ESE) 4,825 10.9 -46.3°
Drops below altitude 10° 05:44:20 10° 96° (E) 5,553 11.4 -46.2°
Sets 05:53:05 0° 78° (ENE) 7,408 12.3 -45.9°
